Location: Daillens
(46.6209°N, 6.5484°E)
Time: 22:03:45
(UTC+00:00)

Daily predictions for brighter satellites

Satellite Brightness Start Highest point End
(mag) Time Altitude Azimuth Time Altitude Azimuth Time Altitude Azimuth
Cosmos 1408 Rocket 4.2 16:15:32 10° N 16:19:31 34° ENE 16:23:28 10° SE
Cosmos 1271 Rocket 2.8 16:15:43 10° S 16:19:35 63° E 16:23:32 10° NNE
NOSS 2-1 (E) 2.8 16:16:41 10° SW 16:19:58 78° SE 16:23:17 10° NE
CZ-4B R/B 2.9 16:18:22 10° SSE 16:22:32 67° ENE 16:26:30 10° N
Cosmos 1697 Rocket 3.8 16:18:49 10° N 16:23:10 22° NE 16:27:31 10° E
Cosmos 1980 Rocket 3.8 16:21:26 10° N 16:24:36 15° NE 16:27:45 10° ENE
deb Kosmos-1763 4.5 16:23:41 10° S 16:26:51 37° ESE 16:30:03 10° NE
Lacrosse 5 2.6 16:21:53 10° WNW 16:26:55 59° SW 16:31:55 10° SSE
Nadezhda 4 Rocket 4.3 16:21:13 10° N 16:27:15 45° ENE 16:33:16 10° SSE
USA 305 3.1 16:24:48 10° WSW 16:28:59 65° NNW 16:33:13 10° NE
USA 267 3.4 16:22:31 10° NE 16:29:03 73° NNW 16:35:34 10° WSW
Cosmos 1656 4.1 16:24:38 10° NNW 16:29:50 41° NE 16:35:05 10° SE
CZ-2C R/B 2.9 16:25:44 10° SSE 16:30:45 85° ENE 16:35:36 10° NNW
CZ-4C R/B 4.1 16:27:44 10° N 16:31:40 53° WNW 16:35:21 10° SSW
CZ-4B DEB 4.5 16:27:56 10° SE 16:33:10 45° ENE 16:38:24 10° N
Cosmos 1340 Rocket 3.6 16:32:48 10° N 16:36:27 31° ENE 16:40:06 10° SE
USA 229 DEB 4.3 16:31:03 10° NNW 16:37:54 43° NE 16:45:10 10° ESE
USA 229 4.3 16:31:09 10° NNW 16:37:59 43° NE 16:45:15 10° ESE
AQUARIUS 4.3 16:37:34 10° SSE 16:41:56 54° ENE 16:46:19 10° N
Lacrosse 5 rocket 3.1 16:39:45 10° NW 16:42:28 18° N 16:45:16 10° NE
ATLAS 2AS CENTAUR R/B 4.1 16:37:47 10° W 16:44:46 34° NNW 16:51:31 10° NNE
Cosmos 1513 Rocket 4.4 16:38:51 10° S 16:44:56 81° E 16:51:08 10° N
USA 276 2.4 16:42:22 10° WNW 16:45:25 47° N 16:47:51 15° E
ATLAS CENTAUR R/B 4.0 16:36:17 10° SSW 16:46:49 42° SE 16:50:57 14° ENE
PAYLOAD B 4.5 16:43:25 10° SE 16:48:46 48° ENE 16:54:09 10° N
SJ 16-02 1.7 16:45:55 10° NNW 16:50:18 68° WSW 16:54:38 10° S
Okean 3 Rocket 4.3 16:49:09 10° NNW 16:53:36 58° W 16:57:59 10° S
Cosmos 1500 Rocket 3.8 16:50:05 10° N 16:54:23 45° ENE 16:58:38 10° SSE
Cosmos 2034 Rocket 4.0 16:49:00 10° S 16:55:03 62° E 17:01:07 10° NNE
CORIOLIS 4.1 16:54:13 10° SSE 16:59:35 82° ENE 17:05:03 10° NNW
USA 306 3.5 16:56:49 10° W 17:00:57 47° NNW 17:04:00 17° NE
CZ-2D R/B 3.4 16:57:24 10° SSE 17:01:08 50° ENE 17:04:51 10° N
NOSS 2-1 (C) 4.2 16:58:13 10° WSW 17:01:13 34° NW 17:04:09 11° NNE
NOSS 3-1 (A) 4.1 16:54:18 10° NW 17:01:32 59° NE 17:10:01 10° ESE
USA 234 3.9 16:56:36 10° SE 17:03:01 58° SW 17:09:27 10° WNW
Meteor 1-20 Rocket 4.4 16:58:51 10° N 17:04:33 55° ENE 17:10:17 10° SSE
NOSS 3-1 (C) 4.1 16:57:18 10° NW 17:04:45 84° NE 17:13:32 10° SE
Cosmos 1805 Rocket 4.1 17:01:13 10° N 17:05:13 34° ENE 17:09:10 10° SE
Cosmos 1842 Rocket 3.6 17:02:21 10° S 17:06:48 90° NW 17:11:18 10° N
Cosmos 1833 Rocket 3.3 17:03:09 10° S 17:08:11 35° ESE 17:11:51 17° NE
NOSS 2-1 (D) 4.5 17:07:43 10° WSW 17:10:35 28° NW 17:13:13 12° NNE
PSLV R/B 3.5 17:09:22 10° SSE 17:13:02 82° ENE 17:16:45 10° NNW
CZ-4B R/B 3.3 17:08:10 10° SE 17:13:27 53° ENE 17:18:40 10° N
Sich 1 3.5 17:12:28 10° N 17:16:25 35° ENE 17:20:22 10° SE
Cosmos 1939 Rocket 3.9 17:12:41 10° S 17:16:42 50° W 17:20:44 10° NNW
SMAP 3.7 17:12:52 10° S 17:17:27 59° W 17:22:04 10° NNW
USA 307 3.7 17:13:21 10° W 17:17:28 43° NNW 17:19:51 22° NE
ARGOS 3.4 17:12:37 10° SE 17:17:44 45° ENE 17:22:53 10° N
ERBS 2.9 17:14:49 10° WSW 17:17:56 47° NNW 17:19:27 25° NNE
Cosmos 1606 3.9 17:15:42 10° SSW 17:19:16 41° WNW 17:22:53 10° N
H-2A R/B 1.9 17:14:08 10° SSE 17:19:21 73° ENE 17:24:28 10° N
Cosmos 1898 Rocket 3.5 17:15:00 10° NNW 17:20:11 55° ENE 17:25:18 10° SE
Cosmos 1634 Rocket 4.2 17:14:39 10° SSE 17:20:38 47° E 17:26:40 10° NNE
MOS 1-B Rocket 4.0 17:15:46 10° NNE 17:21:27 60° ESE 17:27:44 10° S
COSMOS 2455 3.8 17:19:41 10° SSE 17:24:31 26° ESE 17:25:52 24° E
ATLAS CENTAUR R/B 3.3 17:22:30 10° W 17:25:58 24° NW 17:29:27 11° NNE
Cosmos 2221 3.5 17:22:23 10° SSW 17:26:30 48° WNW 17:30:41 10° N
Cosmos 468 Rocket 4.0 17:21:30 10° S 17:26:32 60° ESE 17:30:21 18° NNE
Landsat 5 4.0 17:27:18 31° ENE 17:28:20 35° E 17:32:05 10° SSE
Cosmos 44 3.4 17:23:51 10° NW 17:28:39 72° WSW 17:33:08 10° SSE
COSMO-SKYMED 1 2.6 17:29:13 18° NNE 17:32:18 55° E 17:36:33 10° S
Cosmos 2026 Rocket 3.9 17:28:39 10° N 17:34:50 69° E 17:40:53 10° SSE
Cosmos 540 Rocket 3.8 17:30:28 10° S 17:35:15 43° ESE 17:37:03 31° ENE
SL-08 RB Rocket 4.0 17:31:19 10° SE 17:35:42 43° ENE 17:40:05 10° N
deb Chang Zheng 4 3.4 17:31:47 10° SSE 17:36:04 75° ENE 17:40:24 10° N
Cosmos 2195 Rocket 4.4 17:30:48 10° N 17:36:58 83° E 17:43:09 10° S
CZ-2C R/B 2.5 17:33:21 10° NNE 17:38:34 64° ESE 17:43:40 10° S
SJ-11-01 4.2 17:34:53 10° SSE 17:39:36 68° ENE 17:44:19 10° N
USA 308 3.9 17:35:51 10° W 17:39:49 36° NNW 17:41:12 29° NNE
Okean O Rocket 1.5 17:35:55 10° SSE 17:40:20 69° ENE 17:44:47 10° N
Cosmos 1500 3.5 17:37:09 10° N 17:44:46 - SSE 17:40:06 42° NE
Helios 1B 4.4 17:40:04 21° NNE 17:42:55 71° ESE 17:47:13 10° S
Meteor 1-25 Rocket 4.3 17:38:23 10° NNW 17:43:57 80° W 17:49:32 10° S
ISS -2.8 17:41:54 10° WNW 17:44:55 35° N 17:44:55 35° N
Meteor 2-21 4.3 17:40:14 10° N 17:46:21 75° E 17:52:24 10° SSE
CZ-4C R/B 3.3 17:40:29 10° NNW 17:47:00 41° NE 17:49:48 32° E
YAOGAN 1 3.9 17:50:22 24° NNE 17:50:22 24° NNE 17:52:21 10° N
Meteor 1-5 Rocket 4.4 17:49:39 10° N 17:55:29 51° ENE 18:01:16 10° SSE
CZ-4 R/B 3.7 18:00:22 13° N 18:00:22 13° N 18:00:50 10° N
Cosmos 2084 3.4 17:54:01 10° NW 17:58:19 87° SW 17:59:42 44° SE
Cosmos 2322 Rocket 4.1 17:55:54 10° N 17:57:36 15° NNE 17:57:36 15° NNE
Cosmos 2369 3.6 17:53:50 10° NNW 17:59:34 67° ENE 18:02:24 30° SE
GEOS 3 Rocket 3.6 17:56:53 18° SE 18:00:50 85° SW 18:06:05 10° NW
Cosmos 1782 2.7 17:57:52 10° S 18:01:53 87° WNW 18:02:36 59° N
Cosmos 1697 Rocket 2.8 18:02:09 10° NNW 18:07:46 75° WSW 18:13:21 10° SSE
Cosmos 1937 Rocket 3.5 18:02:43 10° NNW 18:08:04 83° WSW 18:13:23 10° SSE
Cosmos 1763 Rocket 3.9 18:03:13 10° SW 18:08:13 59° WNW 18:11:17 23° N
USA 305 4.1 18:05:37 10° WNW 18:09:22 31° N 18:09:22 31° N
NOSS 2-2 (C) 4.3 18:04:36 10° NW 18:09:38 63° NE 18:10:59 50° E
Cosmos 841 Rocket 3.3 18:04:40 10° S 18:09:47 67° ESE 18:10:09 64° E
Cosmos 1980 Rocket 2.1 18:04:10 10° NNW 18:09:49 63° ENE 18:10:40 56° E
USA 267 4.1 18:08:54 28° NNE 18:11:33 40° NNW 18:17:31 10° WNW
SL-16 R/B 3.9 18:09:24 10° N 18:11:40 19° NNE 18:11:40 19° NNE
Spot 2 4.3 18:14:27 20° SSE 18:18:05 83° ENE 18:23:17 10° NNW
Cosmos 2082 Rocket 2.2 18:13:16 10° S 18:18:33 59° SE 18:18:33 59° SE
SKYMED 2 4.5 18:17:49 22° N 18:20:20 48° WNW 18:24:30 10° SW
USA 276 4.3 18:18:26 10° WNW 18:19:58 25° W 18:19:58 25° W
Lacrosse 5 rocket 3.4 18:19:27 10° NW 18:20:53 17° NNW 18:20:53 17° NNW
Cosmos 1151 Rocket 4.3 18:18:40 10° S 18:20:53 30° S 18:20:53 30° S
COSMOS 2406 3.2 18:18:35 10° SSW 18:24:21 79° WNW 18:26:02 48° NNE
Cosmos 2278 3.9 18:19:57 10° NNW 18:24:47 55° NNE 18:24:47 55° NNE
USA 229 DEB 4.3 18:21:59 10° NW 18:29:14 61° WSW 18:36:54 10° SSE
USA 229 4.3 18:22:05 10° NW 18:29:20 62° WSW 18:37:00 10° SSE
Cosmos 372 Rocket 4.0 18:29:45 10° NNW 18:34:59 76° WSW 18:35:15 74° SW
ATLAS 2AS CENTAUR R/B 4.4 18:32:34 10° NW 18:38:08 21° N 18:39:54 19° NNE
Meteor 2-8 Rocket 4.3 18:32:16 10° S 18:38:24 83° E 18:38:41 80° NE
Cosmos 1833 Rocket 3.8 18:46:46 10° SW 18:52:02 41° NW 18:53:35 34° NNW
COSMOS 2455 3.4 19:04:03 10° SW 19:09:04 55° W 19:09:04 55° W
ATLAS CENTAUR R/B 4.1 19:11:58 10° W 19:16:49 30° WNW 19:16:49 30° WNW
CZ-4C R/B 3.3 19:28:50 10° NW 19:35:02 61° W 19:35:02 61° W
Cosmos 1980 Rocket 4.4 19:49:05 10° NW 19:52:30 21° W 19:52:30 21° W
